"Zeitpunkt";"timestamp";"D0";"V0";"V0_max";"T0";"F0";"G0";"S0";"R0";"M0";"T1";"L0";"L0_nn"
"20.03.2024, 00:00";"1710896401";"156";"2";"5";"105";"78";"8";"0";"0";"0";"89";"0";"10022"
"20.03.2024, 00:10";"1710897001";"155";"1";"4";"103";"81";"9";"0";"0";"0";"86";"0";"10022"
"20.03.2024, 00:20";"1710897601";"171";"2";"4";"104";"78";"8";"0";"0";"0";"95";"0";"10022"
"20.03.2024, 00:30";"1710898201";"159";"2";"4";"105";"77";"8";"0";"0";"0";"89";"0";"10022"
"20.03.2024, 00:40";"1710898801";"152";"2";"5";"102";"80";"9";"0";"0";"0";"78";"0";"10022"
"20.03.2024, 00:50";"1710899401";"164";"3";"5";"102";"78";"8";"0";"0";"0";"90";"0";"10022"
"20.03.2024, 01:00";"1710900001";"149";"2";"5";"103";"78";"9";"0";"0";"0";"90";"0";"10020"
"20.03.2024, 01:10";"1710900601";"158";"2";"4";"102";"80";"8";"0";"0";"0";"89";"0";"10020"
"20.03.2024, 01:20";"1710901201";"163";"3";"5";"100";"80";"8";"0";"0";"0";"88";"0";"10020"
"20.03.2024, 01:30";"1710901801";"167";"3";"5";"99";"80";"8";"0";"0";"0";"89";"0";"10020"
"20.03.2024, 01:40";"1710902401";"162";"2";"4";"98";"81";"8";"0";"0";"0";"83";"0";"10020"
"20.03.2024, 01:50";"1710903001";"168";"2";"4";"98";"81";"8";"0";"0";"0";"89";"0";"10020"
"20.03.2024, 02:00";"1710903601";"168";"3";"5";"99";"80";"8";"0";"0";"0";"93";"0";"10020"
"20.03.2024, 02:10";"1710904201";"166";"3";"5";"101";"79";"8";"0";"0";"0";"93";"0";"10020"
"20.03.2024, 02:20";"1710904801";"168";"3";"6";"101";"79";"8";"0";"0";"0";"94";"0";"10020"
"20.03.2024, 02:30";"1710905401";"167";"3";"5";"102";"78";"8";"0";"0";"0";"95";"0";"10020"
"20.03.2024, 02:40";"1710906001";"168";"3";"5";"103";"78";"8";"0";"0";"0";"95";"0";"10020"
"20.03.2024, 02:50";"1710906601";"168";"3";"5";"102";"78";"8";"0";"0";"0";"91";"0";"10020"
"20.03.2024, 03:00";"1710907201";"166";"3";"5";"102";"79";"8";"0";"0";"0";"89";"0";"10020"
"20.03.2024, 03:10";"1710907801";"154";"2";"4";"102";"78";"8";"0";"0";"0";"87";"0";"10020"
"20.03.2024, 03:20";"1710908401";"154";"2";"5";"103";"78";"8";"0";"0";"0";"89";"0";"10020"
"20.03.2024, 03:30";"1710909001";"155";"2";"5";"103";"78";"8";"0";"0";"0";"91";"0";"10020"
"20.03.2024, 03:40";"1710909601";"166";"2";"5";"102";"78";"8";"0";"0";"0";"92";"0";"10020"
"20.03.2024, 03:50";"1710910201";"171";"2";"4";"100";"80";"8";"0";"0";"0";"88";"0";"10020"
"20.03.2024, 04:00";"1710910801";"166";"1";"4";"97";"82";"8";"0";"0";"0";"77";"0";"10020"
"20.03.2024, 04:10";"1710911401";"163";"2";"5";"96";"82";"8";"0";"0";"0";"84";"0";"10020"
"20.03.2024, 04:20";"1710912001";"163";"2";"5";"97";"82";"8";"0";"0";"0";"89";"0";"10020"
"20.03.2024, 04:30";"1710912601";"168";"2";"4";"98";"81";"8";"0";"0";"0";"94";"0";"10020"
"20.03.2024, 04:40";"1710913201";"159";"2";"6";"100";"81";"8";"0";"0";"0";"94";"0";"10020"
"20.03.2024, 04:50";"1710913801";"165";"2";"6";"101";"80";"8";"0";"0";"0";"92";"0";"10020"
"20.03.2024, 05:00";"1710914401";"159";"3";"6";"102";"80";"26";"0";"0";"0";"95";"0";"10022"
"20.03.2024, 05:10";"1710915001";"163";"2";"5";"103";"79";"61";"0";"0";"0";"98";"0";"10022"
"20.03.2024, 05:20";"1710915601";"161";"3";"6";"104";"79";"92";"0";"0";"0";"99";"0";"10022"
"20.03.2024, 05:30";"1710916201";"170";"2";"5";"104";"79";"144";"0";"0";"0";"99";"0";"10022"
"20.03.2024, 05:40";"1710916801";"165";"3";"6";"105";"78";"216";"0";"0";"0";"104";"0";"10022"
"20.03.2024, 05:50";"1710917401";"166";"3";"6";"107";"78";"357";"1";"0";"0";"105";"0";"10022"
"20.03.2024, 06:00";"1710918001";"169";"4";"6";"109";"77";"606";"10";"0";"0";"110";"0";"10027"
"20.03.2024, 06:10";"1710918601";"175";"3";"6";"112";"76";"659";"10";"0";"0";"113";"0";"10027"
"20.03.2024, 06:20";"1710919201";"176";"3";"7";"115";"74";"750";"10";"0";"0";"119";"0";"10027"
"20.03.2024, 06:30";"1710919801";"149";"4";"8";"119";"73";"828";"10";"0";"0";"123";"0";"10027"
"20.03.2024, 06:40";"1710920401";"153";"4";"8";"122";"74";"842";"10";"0";"0";"129";"0";"10027"
"20.03.2024, 06:50";"1710921001";"181";"3";"5";"124";"72";"990";"10";"0";"0";"129";"0";"10027"
"20.03.2024, 07:00";"1710921601";"174";"2";"5";"127";"71";"1,005";"10";"0";"0";"134";"0";"10029"
"20.03.2024, 07:10";"1710922201";"171";"3";"5";"130";"70";"769";"10";"0";"0";"140";"0";"10029"
"20.03.2024, 07:20";"1710922801";"172";"4";"7";"134";"69";"946";"10";"0";"0";"152";"0";"10029"
"20.03.2024, 07:30";"1710923401";"168";"4";"7";"136";"68";"1,213";"10";"0";"0";"150";"0";"10029"
"20.03.2024, 07:40";"1710924001";"160";"3";"5";"139";"67";"1,134";"10";"0";"0";"166";"0";"10029"
"20.03.2024, 07:50";"1710924601";"156";"3";"7";"144";"66";"1,659";"10";"0";"0";"170";"0";"10029"
"20.03.2024, 08:00";"1710925201";"170";"3";"7";"147";"66";"1,787";"10";"0";"0";"185";"0";"10030"
"20.03.2024, 08:10";"1710925801";"163";"3";"7";"152";"63";"2,021";"10";"0";"0";"189";"0";"10030"
"20.03.2024, 08:20";"1710926401";"163";"4";"8";"156";"62";"2,119";"10";"0";"0";"180";"0";"10030"
"20.03.2024, 08:30";"1710927001";"176";"4";"7";"157";"62";"1,838";"10";"0";"0";"181";"0";"10030"
"20.03.2024, 08:40";"1710927601";"177";"4";"7";"158";"62";"2,023";"10";"0";"0";"187";"0";"10030"
"20.03.2024, 08:50";"1710928201";"168";"3";"6";"161";"61";"2,160";"10";"0";"0";"190";"0";"10030"
"20.03.2024, 09:00";"1710928801";"169";"3";"7";"165";"59";"2,409";"10";"0";"0";"193";"0";"10028"
"20.03.2024, 09:10";"1710929401";"184";"4";"7";"167";"59";"2,295";"10";"0";"0";"189";"0";"10028"
"20.03.2024, 09:20";"1710930001";"173";"3";"7";"168";"58";"2,231";"10";"0";"0";"189";"0";"10028"
"20.03.2024, 09:30";"1710930601";"167";"3";"6";"171";"58";"1,626";"10";"0";"0";"191";"0";"10028"
"20.03.2024, 09:40";"1710931201";"141";"3";"6";"174";"57";"1,955";"10";"0";"0";"196";"0";"10028"
"20.03.2024, 09:50";"1710931801";"163";"3";"7";"176";"56";"1,951";"10";"0";"0";"199";"0";"10028"
"20.03.2024, 10:00";"1710932401";"126";"2";"5";"178";"55";"2,045";"10";"0";"0";"198";"0";"10026"
"20.03.2024, 10:10";"1710933001";"167";"3";"6";"183";"55";"1,982";"10";"0";"0";"209";"0";"10026"
"20.03.2024, 10:20";"1710933601";"194";"3";"8";"184";"52";"1,963";"10";"0";"0";"202";"0";"10026"
"20.03.2024, 10:30";"1710934201";"182";"3";"7";"186";"53";"1,588";"10";"0";"0";"200";"0";"10026"
"20.03.2024, 10:40";"1710934801";"180";"3";"7";"186";"52";"1,560";"10";"0";"0";"201";"0";"10026"
"20.03.2024, 10:50";"1710935401";"174";"4";"7";"187";"51";"1,603";"10";"0";"0";"198";"0";"10026"
"20.03.2024, 11:00";"1710936001";"207";"4";"8";"189";"51";"1,473";"10";"0";"0";"206";"0";"10023"
"20.03.2024, 11:10";"1710936601";"210";"3";"8";"191";"52";"1,436";"10";"0";"0";"218";"0";"10023"
"20.03.2024, 11:20";"1710937202";"241";"5";"11";"192";"50";"1,435";"10";"0";"0";"224";"0";"10023"
"20.03.2024, 11:30";"1710937801";"225";"5";"9";"192";"50";"1,727";"10";"0";"0";"194";"0";"10023"
"20.03.2024, 11:40";"1710938401";"218";"5";"11";"192";"49";"865";"6";"0";"0";"214";"0";"10023"
"20.03.2024, 11:50";"1710939001";"210";"3";"6";"192";"50";"1,124";"6";"0";"0";"204";"0";"10023"
"20.03.2024, 12:00";"1710939601";"192";"4";"8";"193";"50";"1,562";"9";"0";"0";"215";"0";"10019"
"20.03.2024, 12:10";"1710940202";"197";"4";"8";"190";"48";"1,740";"10";"0";"0";"193";"0";"10019"
"20.03.2024, 12:20";"1710940801";"198";"4";"9";"190";"48";"1,640";"10";"0";"0";"193";"0";"10019"
"20.03.2024, 12:30";"1710941401";"206";"5";"10";"191";"47";"1,824";"10";"0";"0";"193";"0";"10019"
"20.03.2024, 12:40";"1710942001";"206";"4";"10";"191";"46";"1,829";"10";"0";"0";"196";"0";"10019"
"20.03.2024, 12:50";"1710942601";"206";"5";"11";"192";"46";"1,927";"8";"0";"0";"192";"0";"10019"
"20.03.2024, 13:00";"1710943201";"207";"3";"7";"192";"46";"1,987";"9";"0";"0";"193";"0";"10016"
"20.03.2024, 13:10";"1710943801";"188";"5";"10";"194";"47";"2,343";"10";"0";"0";"196";"0";"10016"
"20.03.2024, 13:20";"1710944401";"188";"4";"9";"194";"45";"2,387";"10";"0";"0";"185";"0";"10016"
"20.03.2024, 13:30";"1710945001";"184";"4";"9";"192";"46";"1,643";"10";"0";"0";"187";"0";"10016"
"20.03.2024, 13:40";"1710945601";"177";"5";"10";"192";"47";"2,302";"10";"0";"0";"188";"0";"10016"
"20.03.2024, 13:50";"1710946201";"181";"5";"10";"192";"45";"2,131";"10";"0";"0";"188";"0";"10016"
"20.03.2024, 14:00";"1710946801";"199";"3";"9";"193";"47";"2,028";"10";"0";"0";"193";"0";"10016"
"20.03.2024, 14:10";"1710947401";"192";"3";"9";"192";"46";"1,735";"10";"0";"0";"186";"0";"10016"
"20.03.2024, 14:20";"1710948001";"172";"4";"7";"191";"48";"1,325";"10";"0";"0";"183";"0";"10016"
"20.03.2024, 14:30";"1710948601";"194";"4";"11";"190";"47";"1,006";"10";"0";"0";"182";"0";"10016"
"20.03.2024, 14:40";"1710949201";"215";"5";"8";"190";"47";"1,123";"10";"0";"0";"183";"0";"10016"
"20.03.2024, 14:50";"1710949801";"198";"4";"9";"189";"46";"968";"10";"0";"0";"181";"0";"10016"
"20.03.2024, 15:00";"1710950401";"219";"3";"9";"189";"48";"624";"10";"0";"0";"179";"0";"10014"
"20.03.2024, 15:10";"1710951001";"184";"4";"8";"187";"49";"504";"10";"0";"0";"174";"0";"10014"
"20.03.2024, 15:20";"1710951601";"220";"3";"6";"186";"48";"480";"8";"0";"0";"176";"0";"10014"
"20.03.2024, 15:30";"1710952201";"220";"2";"5";"185";"50";"292";"0";"0";"0";"173";"0";"10014"
"20.03.2024, 15:40";"1710952801";"212";"3";"6";"184";"51";"196";"0";"0";"0";"172";"0";"10014"
"20.03.2024, 15:50";"1710953401";"218";"4";"7";"182";"52";"145";"0";"0";"0";"166";"0";"10014"
"20.03.2024, 16:00";"1710954001";"222";"2";"6";"180";"51";"87";"0";"0";"0";"158";"0";"10014"
"20.03.2024, 16:10";"1710954601";"211";"1";"3";"176";"54";"47";"0";"0";"0";"151";"0";"10014"
"20.03.2024, 16:20";"1710955201";"220";"1";"4";"174";"53";"42";"0";"0";"0";"148";"0";"10014"
"20.03.2024, 16:30";"1710955801";"226";"1";"3";"172";"55";"35";"0";"0";"0";"143";"0";"10014"
"20.03.2024, 16:40";"1710956401";"247";"0";"2";"171";"54";"135";"0";"0";"0";"143";"0";"10014"
"20.03.2024, 16:50";"1710957001";"249";"0";"0";"166";"59";"37";"0";"0";"0";"137";"0";"10014"
"20.03.2024, 17:00";"1710957601";"249";"0";"0";"162";"60";"7";"0";"0";"0";"131";"0";"10014"
"20.03.2024, 17:10";"1710958201";"249";"0";"0";"158";"65";"6";"0";"0";"0";"130";"0";"10014"
"20.03.2024, 17:20";"1710958801";"170";"0";"2";"155";"64";"8";"0";"0";"0";"125";"0";"10014"
"20.03.2024, 17:30";"1710959401";"115";"0";"2";"152";"65";"9";"0";"0";"0";"121";"0";"10014"
"20.03.2024, 17:40";"1710960001";"108";"0";"2";"149";"67";"9";"0";"0";"0";"121";"0";"10014"
"20.03.2024, 17:50";"1710960601";"100";"0";"1";"147";"67";"10";"0";"0";"0";"119";"0";"10014"
"20.03.2024, 18:00";"1710961201";"75";"0";"2";"144";"69";"10";"0";"0";"0";"115";"0";"10014"
"20.03.2024, 18:10";"1710961801";"106";"0";"1";"141";"71";"10";"0";"0";"0";"112";"0";"10014"
"20.03.2024, 18:20";"1710962401";"106";"0";"0";"139";"72";"10";"0";"0";"0";"117";"0";"10014"
"20.03.2024, 18:30";"1710963001";"117";"0";"0";"137";"73";"9";"0";"0";"0";"114";"0";"10014"
"20.03.2024, 18:40";"1710963601";"142";"0";"0";"135";"75";"9";"0";"0";"0";"113";"0";"10014"
"20.03.2024, 18:50";"1710964201";"140";"0";"0";"133";"75";"9";"0";"0";"0";"109";"0";"10014"
"20.03.2024, 19:00";"1710964801";"158";"1";"4";"133";"74";"9";"0";"0";"0";"121";"0";"10020"
"20.03.2024, 19:10";"1710965401";"162";"2";"5";"132";"75";"8";"0";"0";"0";"118";"0";"10020"
"20.03.2024, 19:20";"1710966001";"167";"2";"4";"132";"75";"8";"0";"0";"0";"114";"0";"10020"
"20.03.2024, 19:30";"1710966601";"152";"2";"5";"131";"75";"9";"0";"0";"0";"107";"0";"10020"
"20.03.2024, 19:40";"1710967201";"148";"1";"3";"131";"75";"9";"0";"0";"0";"115";"0";"10020"
"20.03.2024, 19:50";"1710967801";"150";"1";"3";"129";"77";"9";"0";"0";"0";"109";"0";"10020"
"20.03.2024, 20:00";"1710968401";"170";"1";"3";"126";"78";"8";"0";"0";"0";"113";"0";"10022"
"20.03.2024, 20:10";"1710969001";"167";"3";"4";"125";"78";"8";"0";"0";"0";"111";"0";"10022"
"20.03.2024, 20:20";"1710969601";"152";"2";"4";"124";"79";"9";"0";"0";"0";"107";"0";"10022"
"20.03.2024, 20:30";"1710970201";"150";"1";"3";"124";"78";"9";"0";"0";"0";"110";"0";"10022"
"20.03.2024, 20:40";"1710970801";"136";"1";"4";"124";"78";"9";"0";"0";"0";"113";"0";"10022"
"20.03.2024, 20:50";"1710971401";"146";"1";"2";"123";"79";"9";"0";"0";"0";"111";"0";"10022"
"20.03.2024, 21:00";"1710972001";"150";"1";"3";"122";"79";"9";"0";"0";"0";"109";"0";"10024"
"20.03.2024, 21:10";"1710972601";"163";"2";"4";"119";"80";"8";"0";"0";"0";"106";"0";"10024"
"20.03.2024, 21:20";"1710973201";"174";"2";"4";"116";"81";"8";"0";"0";"0";"105";"0";"10024"
"20.03.2024, 21:30";"1710973801";"172";"2";"4";"114";"82";"8";"0";"0";"0";"100";"0";"10024"
"20.03.2024, 21:40";"1710974401";"170";"2";"4";"113";"82";"8";"0";"0";"0";"103";"0";"10024"
"20.03.2024, 21:50";"1710975002";"170";"3";"5";"112";"82";"8";"0";"0";"0";"103";"0";"10024"
"20.03.2024, 22:00";"1710975601";"167";"4";"5";"112";"83";"8";"0";"0";"0";"104";"0";"10024"
"20.03.2024, 22:10";"1710976201";"164";"3";"6";"112";"82";"8";"0";"0";"0";"105";"0";"10024"
"20.03.2024, 22:20";"1710976801";"148";"2";"4";"112";"82";"9";"0";"0";"0";"98";"0";"10024"
"20.03.2024, 22:30";"1710977401";"164";"2";"4";"112";"81";"8";"0";"0";"0";"101";"0";"10024"
"20.03.2024, 22:40";"1710978001";"160";"1";"4";"111";"82";"8";"0";"0";"0";"98";"0";"10024"
"20.03.2024, 22:50";"1710978601";"168";"2";"5";"110";"82";"8";"0";"0";"0";"100";"0";"10024"
"20.03.2024, 23:00";"1710979201";"160";"3";"5";"109";"82";"8";"0";"0";"0";"99";"0";"10022"
"20.03.2024, 23:10";"1710979801";"161";"2";"4";"108";"83";"8";"0";"0";"0";"100";"0";"10022"
"20.03.2024, 23:20";"1710980401";"165";"2";"4";"108";"83";"8";"0";"0";"0";"99";"0";"10022"
"20.03.2024, 23:30";"1710981001";"159";"2";"3";"108";"83";"8";"0";"0";"0";"98";"0";"10022"
"20.03.2024, 23:40";"1710981601";"164";"1";"3";"107";"84";"8";"0";"0";"0";"99";"0";"10022"
"20.03.2024, 23:50";"1710982201";"181";"1";"3";"107";"84";"8";"0";"0";"0";"101";"0";"10022"
"21.03.2024, 00:00";"1710982801";"173";"1";"3";"108";"83";"8";"0";"0";"0";"103";"0";"10022"
"21.03.2024, 00:10";"1710983401";"178";"2";"4";"107";"84";"8";"0";"0";"0";"103";"0";"10022"
"21.03.2024, 00:20";"1710984001";"168";"2";"3";"108";"83";"8";"0";"0";"0";"105";"0";"10022"
"21.03.2024, 00:30";"1710984601";"170";"2";"4";"108";"83";"8";"0";"0";"0";"103";"0";"10022"
"21.03.2024, 00:40";"1710985201";"169";"2";"4";"108";"83";"8";"0";"0";"0";"103";"0";"10022"
"21.03.2024, 00:50";"1710985801";"170";"2";"4";"108";"83";"8";"0";"0";"0";"100";"0";"10022"
"21.03.2024, 01:00";"1710986401";"219";"1";"3";"108";"84";"7";"0";"0";"0";"99";"0";"10027"
"21.03.2024, 01:10";"1710987001";"316";"1";"4";"110";"84";"5";"0";"0";"0";"101";"0";"10027"
"21.03.2024, 01:20";"1710987601";"283";"1";"3";"110";"85";"5";"0";"0";"0";"101";"0";"10027"
"21.03.2024, 01:30";"1710988202";"269";"1";"3";"111";"85";"6";"0";"0";"0";"101";"0";"10027"
"21.03.2024, 01:40";"1710988801";"261";"1";"3";"110";"86";"6";"0";"0";"0";"99";"0";"10027"
"21.03.2024, 01:50";"1710989401";"293";"1";"3";"111";"86";"5";"0";"0";"0";"97";"0";"10027"
"21.03.2024, 02:00";"1710990001";"319";"1";"2";"111";"87";"5";"0";"0";"0";"95";"0";"10029"
"21.03.2024, 02:10";"1710990601";"294";"0";"2";"110";"87";"5";"0";"0";"0";"96";"0";"10029"
"21.03.2024, 02:20";"1710991201";"338";"0";"2";"110";"88";"8";"0";"0";"0";"95";"0";"10029"
"21.03.2024, 02:30";"1710991801";"306";"0";"1";"110";"87";"5";"0";"0";"0";"92";"0";"10029"
"21.03.2024, 02:40";"1710992401";"294";"0";"2";"109";"89";"5";"0";"0";"0";"97";"0";"10029"
"21.03.2024, 02:50";"1710993001";"251";"1";"2";"108";"89";"6";"0";"0";"0";"100";"0";"10029"
"21.03.2024, 03:00";"1710993601";"200";"2";"3";"107";"89";"7";"0";"0";"0";"101";"0";"10031"
"21.03.2024, 03:10";"1710994201";"198";"2";"3";"107";"89";"7";"0";"0";"0";"101";"0";"10031"
"21.03.2024, 03:20";"1710994801";"186";"2";"3";"106";"88";"8";"0";"0";"0";"101";"0";"10031"
"21.03.2024, 03:30";"1710995401";"181";"2";"4";"106";"88";"8";"0";"0";"0";"102";"0";"10031"
"21.03.2024, 03:40";"1710996001";"292";"2";"5";"109";"88";"5";"0";"0";"0";"103";"0";"10031"
"21.03.2024, 03:50";"1710996601";"305";"4";"11";"112";"85";"5";"0";"0";"0";"106";"0";"10031"
"21.03.2024, 04:00";"1710997201";"303";"5";"12";"114";"83";"5";"0";"0";"0";"102";"0";"10041"
"21.03.2024, 04:10";"1710997801";"305";"5";"10";"113";"83";"5";"0";"0";"0";"101";"0";"10041"
"21.03.2024, 04:20";"1710998401";"306";"4";"8";"112";"84";"5";"0";"0";"0";"97";"0";"10041"
"21.03.2024, 04:30";"1710999001";"304";"3";"6";"110";"84";"5";"0";"0";"0";"102";"0";"10041"
"21.03.2024, 04:40";"1710999601";"300";"3";"6";"110";"85";"5";"0";"0";"0";"104";"0";"10041"
"21.03.2024, 04:50";"1711000201";"299";"3";"7";"111";"85";"5";"0";"0";"0";"107";"0";"10041"
"21.03.2024, 05:00";"1711000801";"309";"3";"8";"113";"85";"5";"0";"0";"0";"109";"0";"10048"
"21.03.2024, 05:10";"1711001401";"305";"5";"12";"113";"84";"5";"0";"0";"0";"111";"0";"10048"
"21.03.2024, 05:20";"1711002001";"298";"7";"14";"113";"84";"9";"0";"0";"0";"110";"0";"10048"
"21.03.2024, 05:30";"1711002601";"300";"7";"12";"112";"84";"9";"0";"0";"0";"109";"0";"10048"
"21.03.2024, 05:40";"1711003201";"301";"5";"9";"112";"84";"9";"0";"0";"0";"110";"0";"10048"
"21.03.2024, 05:50";"1711003801";"294";"4";"8";"111";"84";"15";"0";"0";"0";"109";"0";"10048"
"21.03.2024, 06:00";"1711004401";"294";"6";"10";"110";"83";"16";"0";"0";"0";"108";"0";"10055"
"21.03.2024, 06:10";"1711005002";"290";"6";"10";"110";"83";"37";"0";"0";"0";"110";"0";"10055"
"21.03.2024, 06:20";"1711005601";"304";"5";"11";"109";"79";"45";"0";"0";"0";"112";"0";"10055"
"21.03.2024, 06:30";"1711006201";"326";"6";"13";"110";"78";"97";"0";"0";"0";"114";"0";"10055"
"21.03.2024, 06:40";"1711006801";"334";"5";"12";"110";"78";"146";"0";"0";"0";"117";"0";"10055"
"21.03.2024, 06:50";"1711007402";"305";"5";"9";"110";"78";"49";"0";"0";"0";"112";"0";"10055"
"21.03.2024, 07:00";"1711008001";"308";"5";"10";"110";"77";"54";"0";"0";"0";"111";"0";"10062"
"21.03.2024, 07:10";"1711008601";"301";"7";"12";"109";"76";"114";"0";"0";"0";"115";"0";"10062"
"21.03.2024, 07:20";"1711009201";"304";"7";"12";"109";"75";"228";"1";"0";"0";"127";"0";"10062"
"21.03.2024, 07:30";"1711009801";"314";"7";"15";"111";"74";"472";"4";"0";"0";"121";"0";"10062"
"21.03.2024, 07:40";"1711010402";"315";"7";"12";"110";"74";"390";"3";"0";"0";"119";"0";"10062"
"21.03.2024, 07:50";"1711011001";"318";"7";"13";"108";"73";"264";"0";"0";"0";"117";"0";"10062"
"21.03.2024, 08:00";"1711011601";"316";"6";"15";"106";"75";"175";"0";"0";"0";"112";"0";"10073"
"21.03.2024, 08:10";"1711012201";"300";"6";"10";"104";"75";"129";"0";"0";"0";"120";"0";"10073"
"21.03.2024, 08:20";"1711012801";"312";"5";"11";"104";"75";"327";"1";"0";"0";"118";"0";"10073"
"21.03.2024, 08:30";"1711013401";"299";"5";"8";"104";"75";"166";"0";"0";"0";"122";"0";"10073"
"21.03.2024, 08:40";"1711014001";"296";"5";"8";"105";"74";"261";"0";"0";"0";"124";"0";"10073"
"21.03.2024, 08:50";"1711014601";"290";"5";"8";"105";"75";"206";"0";"0";"0";"120";"0";"10073"
"21.03.2024, 09:00";"1711015201";"290";"5";"8";"105";"75";"224";"0";"0";"0";"117";"0";"10078"
"21.03.2024, 09:10";"1711015801";"297";"5";"10";"106";"74";"155";"0";"0";"0";"120";"0";"10078"
"21.03.2024, 09:20";"1711016401";"282";"6";"10";"106";"74";"221";"0";"0";"0";"125";"0";"10078"
"21.03.2024, 09:30";"1711017001";"291";"5";"9";"105";"74";"281";"0";"0";"0";"120";"0";"10078"
"21.03.2024, 09:40";"1711017601";"300";"5";"9";"107";"74";"165";"0";"0";"0";"122";"0";"10078"
"21.03.2024, 09:50";"1711018201";"298";"5";"9";"108";"73";"235";"0";"0";"0";"126";"0";"10078"
"21.03.2024, 10:00";"1711018801";"296";"6";"10";"106";"72";"186";"0";"0";"0";"125";"0";"10085"
"21.03.2024, 10:10";"1711019401";"311";"5";"11";"107";"71";"330";"1";"0";"0";"124";"0";"10085"
"21.03.2024, 10:20";"1711020001";"309";"6";"10";"109";"71";"254";"0";"0";"0";"132";"0";"10085"
"21.03.2024, 10:30";"1711020601";"294";"6";"9";"110";"70";"427";"5";"0";"0";"136";"0";"10085"
"21.03.2024, 10:40";"1711021201";"298";"5";"10";"112";"70";"673";"7";"0";"0";"133";"0";"10085"
"21.03.2024, 10:50";"1711021801";"292";"6";"11";"113";"70";"462";"5";"0";"0";"144";"0";"10085"
"21.03.2024, 11:00";"1711022401";"298";"5";"10";"114";"70";"622";"7";"0";"0";"134";"0";"10088"
"21.03.2024, 11:10";"1711023002";"282";"5";"9";"114";"70";"401";"2";"0";"0";"136";"0";"10088"
"21.03.2024, 11:20";"1711023601";"302";"5";"8";"114";"70";"435";"3";"0";"0";"133";"0";"10088"
"21.03.2024, 11:30";"1711024202";"302";"4";"8";"116";"69";"576";"3";"0";"0";"151";"0";"10088"
"21.03.2024, 11:40";"1711024801";"299";"4";"7";"118";"69";"597";"3";"0";"0";"143";"0";"10088"
"21.03.2024, 11:50";"1711025401";"288";"3";"7";"120";"67";"257";"1";"0";"0";"140";"0";"10088"
"21.03.2024, 12:00";"1711026001";"272";"4";"8";"119";"67";"354";"1";"0";"0";"136";"0";"10088"
"21.03.2024, 12:10";"1711026601";"288";"4";"7";"121";"66";"377";"4";"0";"0";"137";"0";"10088"
"21.03.2024, 12:20";"1711027201";"269";"4";"7";"123";"65";"458";"2";"0";"0";"142";"0";"10088"
"21.03.2024, 12:30";"1711027801";"280";"4";"10";"123";"65";"1,624";"10";"0";"0";"135";"0";"10088"
"21.03.2024, 12:40";"1711028401";"274";"4";"10";"125";"64";"922";"10";"0";"0";"138";"0";"10088"
"21.03.2024, 12:50";"1711029001";"256";"4";"9";"127";"64";"592";"10";"0";"0";"143";"0";"10088"
"21.03.2024, 13:00";"1711029601";"250";"4";"9";"127";"64";"558";"3";"0";"0";"134";"0";"10085"
"21.03.2024, 13:10";"1711030201";"256";"6";"10";"127";"65";"508";"7";"0";"0";"140";"0";"10085"
"21.03.2024, 13:20";"1711030802";"270";"5";"9";"127";"64";"736";"10";"0";"0";"135";"0";"10085"
"21.03.2024, 13:30";"1711031401";"285";"4";"9";"126";"65";"414";"5";"0";"0";"131";"0";"10085"
"21.03.2024, 13:40";"1711032001";"295";"4";"10";"125";"65";"608";"10";"0";"0";"136";"0";"10085"
"21.03.2024, 13:50";"1711032601";"282";"5";"9";"124";"65";"663";"10";"0";"0";"134";"0";"10085"
"21.03.2024, 14:00";"1711033201";"286";"4";"8";"126";"64";"1,264";"10";"0";"0";"135";"0";"10081"
"21.03.2024, 14:10";"1711033801";"261";"5";"9";"126";"65";"480";"10";"0";"0";"131";"0";"10081"
"21.03.2024, 14:20";"1711034401";"288";"4";"9";"125";"66";"602";"10";"0";"0";"129";"0";"10081"
"21.03.2024, 14:30";"1711035002";"289";"5";"10";"124";"66";"411";"4";"0";"0";"128";"0";"10081"
"21.03.2024, 14:40";"1711035601";"266";"4";"7";"127";"66";"840";"8";"0";"0";"127";"0";"10081"
"21.03.2024, 14:50";"1711036201";"229";"4";"9";"128";"63";"1,454";"10";"0";"0";"126";"0";"10081"
"21.03.2024, 15:00";"1711036801";"232";"5";"9";"126";"64";"523";"6";"0";"0";"123";"0";"10078"
"21.03.2024, 15:10";"1711037401";"260";"4";"8";"125";"65";"195";"0";"0";"0";"123";"0";"10078"
"21.03.2024, 15:20";"1711038001";"262";"4";"7";"124";"66";"90";"0";"0";"0";"122";"0";"10078"
"21.03.2024, 15:30";"1711038601";"253";"4";"8";"124";"67";"42";"0";"0";"0";"120";"0";"10078"
"21.03.2024, 15:40";"1711039201";"237";"4";"7";"124";"67";"28";"0";"0";"0";"118";"0";"10078"
"21.03.2024, 15:50";"1711039801";"206";"3";"8";"123";"68";"28";"0";"0";"0";"118";"0";"10078"
"21.03.2024, 16:00";"1711040401";"230";"3";"7";"123";"68";"20";"0";"0";"0";"117";"0";"10078"
"21.03.2024, 16:10";"1711041001";"203";"3";"6";"122";"68";"12";"0";"0";"0";"116";"0";"10078"
"21.03.2024, 16:20";"1711041602";"211";"3";"5";"122";"70";"9";"0";"0";"0";"114";"0";"10078"
"21.03.2024, 16:30";"1711042202";"201";"3";"5";"121";"69";"7";"0";"0";"0";"114";"0";"10078"
"21.03.2024, 16:40";"1711042801";"179";"2";"5";"121";"70";"8";"0";"0";"0";"112";"0";"10078"
"21.03.2024, 16:50";"1711043401";"176";"2";"4";"120";"70";"8";"0";"0";"0";"112";"0";"10078"
"21.03.2024, 17:00";"1711044001";"178";"2";"5";"120";"71";"8";"0";"0";"0";"111";"0";"10076"
"21.03.2024, 17:10";"1711044601";"202";"2";"4";"119";"71";"7";"0";"0";"0";"110";"0";"10076"
"21.03.2024, 17:20";"1711045201";"211";"3";"6";"119";"71";"7";"0";"0";"0";"111";"0";"10076"
"21.03.2024, 17:30";"1711045801";"208";"3";"5";"119";"72";"7";"0";"0";"0";"110";"0";"10076"
"21.03.2024, 17:40";"1711046401";"208";"3";"6";"118";"72";"7";"0";"0";"0";"108";"0";"10076"
"21.03.2024, 17:50";"1711047001";"205";"2";"4";"117";"72";"7";"0";"0";"0";"106";"0";"10076"